Platteville, WI

11:18 PM CST on February 23, 2017 (GMT -0600)
Platteville Municipal

Weather History for KPVB - May, 2013

Change the Weather History Date:

Thursday, May 16, 2013

  Actual Average (KDBQ) Record (KDBQ)
Temperature  
Mean Temperature 68 °F -  
Max Temperature 82 °F 69 °F 89 °F (1936)
Min Temperature 55 °F 48 °F 31 °F (1997)
Cooling Degree Days 4    
Growing Degree Days 18 (Base 50)    
Moisture  
Dew Point 43 °F    
Average Humidity 40    
Maximum Humidity 64    
Minimum Humidity 21    
Precipitation  
Precipitation 0.00 in - - ()
Sea Level Pressure  
Sea Level Pressure 29.91 in    
Wind  
Wind Speed 6 mph (East)    
Max Wind Speed 13 mph    
Max Gust Speed 18 mph    
Visibility 10 miles    
Events      
Averages and records for this station are not official NWS values.
T = Trace of Precipitation, MM = Missing Value Source: NWS Daily Summary

Daily Weather History Graph

Daily Weather History Graph

Search for Another Location

Airport or City:

Trip Planner

Search our weather history database for the weather conditions in past years. The results will help you decide how hot, cold, wet, or windy it might be!

Date:

Astronomy

May. 16, 2013 Rise Set
Actual Time 5:38 AM CDT 8:18 PM CDT
Civil Twilight 5:05 AM CDT 8:51 PM CDT
Nautical Twilight 4:24 AM CDT 9:32 PM CDT
Astronomical Twilight 3:38 AM CDT 10:19 PM CDT
Moon 11:14 AM CDT (5/16) 12:37 AM CDT (5/16)
Length of Visible Light 15h 45m
Length of Day
14h 40m
Waxing Crescent, 36% of the Moon is Illuminated
May 16
Waxing Crescent
May 17
First Quarter
May 24
Full
May 31
Last Quarter
Jun 8
New

Hourly Weather History & Observations

Time (CDT) Temp. Dew Point Humidity Pressure Visibility Wind Dir Wind Speed Gust Speed Precip Events Conditions
12:15 AM 62.6 °F 41.5 °F 46% 29.89 in 10.0 mi NW 5.8 mph - N/A   Scattered Clouds
12:35 AM 59.5 °F 42.8 °F 54% 29.88 in 10.0 mi NNW 4.6 mph - N/A   Scattered Clouds
12:55 AM 58.8 °F 44.2 °F 58% 29.88 in 10.0 mi NNW 4.6 mph - N/A   Scattered Clouds
1:15 AM 59.9 °F 44.1 °F 56% 29.88 in 10.0 mi NNW 5.8 mph - N/A   Scattered Clouds
1:35 AM 61.0 °F 43.9 °F 53% 29.89 in 10.0 mi NNW 6.9 mph - N/A   Clear
1:55 AM 60.6 °F 43.9 °F 54% 29.89 in 10.0 mi NNW 5.8 mph - N/A   Clear
2:15 AM 59.0 °F 45.0 °F 60% 29.89 in 10.0 mi NNW 6.9 mph - N/A   Clear
2:35 AM 59.9 °F 43.7 °F 55% 29.89 in 10.0 mi North 6.9 mph - N/A   Clear
2:55 AM 59.2 °F 43.9 °F 57% 29.89 in 10.0 mi North 6.9 mph - N/A   Clear
3:15 AM 59.2 °F 43.2 °F 55% 29.89 in 10.0 mi NNW 5.8 mph - N/A   Clear
3:35 AM 57.2 °F 43.7 °F 61% 29.89 in 10.0 mi North 4.6 mph - N/A   Clear
3:55 AM 58.5 °F 43.2 °F 57% 29.89 in 10.0 mi North 4.6 mph - N/A   Clear
4:15 AM 55.9 °F 43.7 °F 63% 29.89 in 10.0 mi North 4.6 mph - N/A   Scattered Clouds
4:35 AM 56.3 °F 43.3 °F 62% 29.89 in 10.0 mi North 5.8 mph - N/A   Scattered Clouds
4:55 AM 57.2 °F 42.8 °F 59% 29.89 in 10.0 mi North 5.8 mph - N/A   Scattered Clouds
5:15 AM 55.6 °F 43.7 °F 64% 29.90 in 10.0 mi North 5.8 mph - N/A   Clear
5:35 AM 58.1 °F 43.3 °F 58% 29.90 in 10.0 mi North 5.8 mph - N/A   Clear
5:55 AM 58.1 °F 45.0 °F 62% 29.91 in 10.0 mi North 4.6 mph - N/A   Clear
6:15 AM 60.1 °F 44.8 °F 57% 29.92 in 10.0 mi North 5.8 mph - N/A   Clear
6:35 AM 59.5 °F 45.7 °F 60% 29.92 in 10.0 mi North 5.8 mph - N/A   Clear
6:55 AM 60.4 °F 47.5 °F 62% 29.93 in 10.0 mi North 3.5 mph - N/A   Clear
7:15 AM 62.4 °F 46.4 °F 56% 29.93 in 10.0 mi Calm Calm - N/A   Clear
7:35 AM 62.8 °F 48.9 °F 61% 29.93 in 10.0 mi Calm Calm - N/A   Clear
7:55 AM 67.8 °F 46.4 °F 46% 29.94 in 10.0 mi Calm Calm - N/A   Clear
8:15 AM 69.8 °F 48.9 °F 47% 29.94 in 7.0 mi North 3.5 mph - N/A   Clear
8:35 AM 71.8 °F 48.2 °F 43% 29.94 in 10.0 mi SSW 6.9 mph - N/A   Clear
8:55 AM 71.8 °F 48.0 °F 43% 29.95 in 10.0 mi South 4.6 mph - N/A   Clear
9:15 AM 71.2 °F 48.9 °F 45% 29.95 in 10.0 mi Calm Calm - N/A   Clear
9:35 AM 72.3 °F 48.4 °F 43% 29.94 in 10.0 mi Calm Calm - N/A   Clear
9:55 AM 74.1 °F 48.2 °F 40% 29.94 in 10.0 mi SSE 3.5 mph - N/A   Clear
10:15 AM 75.6 °F 48.9 °F 39% 29.94 in 10.0 mi Calm Calm - N/A   Clear
10:35 AM 77.4 °F 43.2 °F 30% 29.94 in 10.0 mi Calm Calm - N/A   Clear
10:55 AM 78.4 °F 42.1 °F 27% 29.94 in 10.0 mi ESE 3.5 mph - N/A   Clear
11:15 AM 78.1 °F 40.1 °F 26% 29.94 in 10.0 mi Calm Calm - N/A   Clear
11:35 AM 79.0 °F 40.6 °F 25% 29.94 in 10.0 mi ESE 6.9 mph - N/A   Clear
11:55 AM 79.0 °F 37.2 °F 22% 29.93 in 10.0 mi SE 5.8 mph - N/A   Clear
12:15 PM 80.4 °F 38.5 °F 22% 29.92 in 10.0 mi SSE 5.8 mph - N/A   Clear
12:35 PM 80.1 °F 39.7 °F 24% 29.92 in 10.0 mi East 6.9 mph - N/A   Clear
12:55 PM 80.1 °F 41.9 °F 26% 29.92 in 10.0 mi SE 12.7 mph 18.4 mph N/A   Clear
1:15 PM 79.9 °F 43.0 °F 27% 29.91 in 10.0 mi East 10.4 mph 18.4 mph N/A   Clear
1:35 PM 80.8 °F 42.8 °F 26% 29.91 in 10.0 mi SE 9.2 mph - N/A   Clear
2:15 PM 82.0 °F 42.4 °F 25% 29.90 in 10.0 mi SE 9.2 mph - N/A   Clear
2:35 PM 81.1 °F 40.8 °F 24% 29.90 in 10.0 mi ESE 4.6 mph - N/A   Clear
2:55 PM 81.9 °F 42.8 °F 25% 29.89 in 10.0 mi East 9.2 mph - N/A   Clear
3:15 PM 81.9 °F 41.5 °F 24% 29.89 in 10.0 mi SE 9.2 mph - N/A   Clear
3:35 PM 81.9 °F 41.2 °F 24% 29.89 in 10.0 mi SE 9.2 mph 18.4 mph N/A   Clear
3:55 PM 81.9 °F 39.7 °F 22% 29.89 in 10.0 mi SSE 6.9 mph - N/A   Clear
4:15 PM 82.2 °F 38.5 °F 21% 29.88 in 10.0 mi ESE 5.8 mph - N/A   Clear
4:35 PM 82.6 °F 38.7 °F 21% 29.89 in 10.0 mi South 8.1 mph - N/A   Clear
5:15 PM 82.2 °F 40.8 °F 23% 29.89 in 10.0 mi South 11.5 mph 17.3 mph N/A   Clear
5:35 PM 81.7 °F 42.3 °F 25% 29.89 in 10.0 mi SSW 10.4 mph - N/A   Clear
5:55 PM 82.0 °F 40.8 °F 23% 29.88 in 10.0 mi SSE 9.2 mph - N/A   Clear
6:15 PM 81.5 °F 39.6 °F 22% 29.89 in 10.0 mi SSW 9.2 mph - N/A   Clear
6:35 PM 81.0 °F 39.7 °F 23% 29.88 in 10.0 mi SSW 10.4 mph - N/A   Clear
6:55 PM 80.2 °F 38.8 °F 23% 29.88 in 10.0 mi South 6.9 mph - N/A   Clear
7:15 PM 79.3 °F 41.0 °F 25% 29.88 in 10.0 mi South 4.6 mph - N/A   Clear
7:35 PM 78.6 °F 41.0 °F 26% 29.89 in 10.0 mi Calm Calm - N/A   Clear
7:55 PM 77.9 °F 40.8 °F 27% 29.89 in 10.0 mi Calm Calm - N/A   Clear
8:15 PM 77.4 °F 39.9 °F 26% 29.90 in 10.0 mi Calm Calm - N/A   Clear
8:35 PM 76.3 °F 40.1 °F 27% 29.91 in 10.0 mi ESE 3.5 mph - N/A   Clear
8:55 PM 75.6 °F 41.2 °F 29% 29.92 in 10.0 mi SE 3.5 mph - N/A   Clear
9:15 PM 74.5 °F 41.2 °F 30% 29.92 in 10.0 mi ESE 3.5 mph - N/A   Clear
9:35 PM 70.2 °F 43.7 °F 38% 29.92 in 10.0 mi East 3.5 mph - N/A   Clear
9:55 PM 72.5 °F 42.1 °F 33% 29.92 in 10.0 mi East 5.8 mph - N/A   Scattered Clouds
10:15 PM 69.6 °F 46.4 °F 43% 29.93 in 10.0 mi ENE 12.7 mph - N/A   Overcast
10:35 PM 66.9 °F 48.4 °F 51% 29.94 in 10.0 mi East 11.5 mph - N/A   Mostly Cloudy
10:55 PM 65.8 °F 47.3 °F 51% 29.94 in 10.0 mi East 11.5 mph - N/A   Clear
11:15 PM 64.4 °F 47.3 °F 54% 29.94 in 10.0 mi East 10.4 mph - N/A   Clear
11:35 PM 63.5 °F 46.4 °F 54% 29.94 in 10.0 mi East 10.4 mph - N/A   Clear
11:55 PM 63.7 °F 46.2 °F 53% 29.94 in 10.0 mi ESE 9.2 mph - N/A   Clear